Weather History for Du Bois, PA

Change the Weather History Date:

Thursday, February 2, 2012

  Actual Average Record
Temperature  
Mean Temperature 32 °F 24 °F  
Max Temperature 33 °F 32 °F 51 °F (1967)
Min Temperature 30 °F 17 °F -10 °F (1976)
Degree Days  
Heating Degree Days 33 41  
Month to date heating degree days 55 82  
Since 1 July heating degree days 3077 4026  
Cooling Degree Days 0 0  
Month to date cooling degree days 0 0  
Year to date cooling degree days 0 0  
Moisture  
Dew Point 28 °F    
Average Humidity 85    
Maximum Humidity 92    
Minimum Humidity 78    
Precipitation  
Precipitation T in 0.09 in 0.91 in (1983)
Month to date precipitation 0.14 0.17  
Sea Level Pressure  
Sea Level Pressure 30.14 in    
Wind  
Wind Speed 7 mph (NW)    
Max Wind Speed 16 mph    
Max Gust Speed 25 mph    
Visibility 10 miles    
Events      
T = Trace of Precipitation, MM = Missing Value Source: NWS Daily Summary

Daily Weather History Graph

Daily Weather History Graph

Search for Another Location

Airport:

Trip Planner

Search our weather history database for the weather conditions in past years. The results will help you decide how hot, cold, wet, or windy it might be!

Date:

Astronomy

Feb. 02, 2012 Rise Set
Actual Time 7:26 AM EST 5:32 PM EST
Civil Twilight 6:56 AM EST 6:02 PM EST
Nautical Twilight 6:24 AM EST 6:35 PM EST
Astronomical Twilight 5:51 AM EST 7:07 PM EST
Moon 12:41 PM EST (2/2) 3:07 AM EST (2/2)
Length of Visible Light 11h 05m
Length of Day
10h 06m
Waxing Gibbous, 73% of the Moon is Illuminated
Feb 2
Waxing Gibbous
Feb 7
Full
Feb 14
Last Quarter
Feb 21
New
Feb 29
First Quarter

Hourly Weather History & Observations

Time (EST) Temp. Windchill Dew Point Humidity Pressure Visibility Wind Dir Wind Speed Gust Speed Precip Events Conditions
12:56 AM 32.0 °F 28.7 °F 28.9 °F 88% 30.04 in 10.0 mi ENE 3.5 mph - N/A   Scattered Clouds
1:56 AM 32.0 °F - 28.9 °F 88% 30.04 in 9.0 mi Calm Calm - N/A   Clear
2:18 AM 30.2 °F - 30.2 °F 100% 30.01 in 6.0 mi Calm Calm - N/A   Mostly Cloudy
2:56 AM 30.9 °F 27.5 °F 28.9 °F 92% 30.04 in 8.0 mi NNW 3.5 mph - N/A   Mostly Cloudy
3:05 AM 30.2 °F 26.7 °F 28.4 °F 93% 30.00 in 7.0 mi NNW 3.5 mph - N/A   Scattered Clouds
3:56 AM 30.9 °F 27.5 °F 28.9 °F 92% 30.03 in 8.0 mi NNW 3.5 mph - N/A   Clear
4:56 AM 30.9 °F 25.2 °F 28.9 °F 92% 30.02 in 8.0 mi North 5.8 mph - N/A   Clear
5:56 AM 30.9 °F 25.2 °F 28.9 °F 92% 30.02 in 9.0 mi North 5.8 mph - N/A   Clear
6:29 AM 30.2 °F 26.7 °F 28.4 °F 93% 30.01 in 10.0 mi NNW 3.5 mph - N/A   Mostly Cloudy
6:56 AM 30.9 °F 25.2 °F 28.9 °F 92% 30.06 in 10.0 mi NW 5.8 mph - N/A   Mostly Cloudy
7:06 AM 30.2 °F 24.3 °F 28.4 °F 93% 30.03 in 10.0 mi NW 5.8 mph - N/A   Mostly Cloudy
7:19 AM 32.0 °F 28.7 °F 28.4 °F 87% 30.02 in 10.0 mi North 3.5 mph - N/A   Overcast
7:56 AM 30.9 °F - 28.9 °F 92% 30.09 in 10.0 mi Calm Calm - N/A   Overcast
8:56 AM 32.0 °F 27.5 °F 28.9 °F 88% 30.10 in 10.0 mi WNW 4.6 mph - N/A   Overcast
9:34 AM 32.0 °F 25.6 °F 30.2 °F 93% 30.07 in 8.0 mi WNW 6.9 mph - N/A   Overcast
9:42 AM 32.0 °F 26.4 °F 30.2 °F 93% 30.07 in 10.0 mi WNW 5.8 mph - N/A   Overcast
9:56 AM 32.0 °F 25.6 °F 28.9 °F 88% 30.11 in 10.0 mi WNW 6.9 mph - N/A   Overcast
10:16 AM 32.0 °F 25.6 °F 28.4 °F 87% 30.07 in 10.0 mi WNW 6.9 mph - N/A   Overcast
10:48 AM 33.8 °F 25.8 °F 28.4 °F 81% 30.08 in 10.0 mi West 10.4 mph - N/A   Overcast
10:56 AM 33.1 °F 25.5 °F 28.9 °F 85% 30.13 in 10.0 mi WNW 9.2 mph - N/A   Overcast
11:07 AM 33.8 °F 26.4 °F 28.4 °F 81% 30.08 in 10.0 mi West 9.2 mph - N/A   Overcast
11:26 AM 33.8 °F 24.8 °F 28.4 °F 81% 30.08 in 10.0 mi West 12.7 mph - N/A   Overcast
11:41 AM 33.8 °F 24.8 °F 28.4 °F 81% 30.08 in 10.0 mi WNW 12.7 mph 19.6 mph N/A   Overcast
11:56 AM 33.1 °F 23.9 °F 28.0 °F 82% 30.13 in 10.0 mi WNW 12.7 mph - N/A   Overcast
12:56 PM 32.0 °F 23.6 °F 27.0 °F 82% 30.15 in 10.0 mi WNW 10.4 mph 18.4 mph N/A   Overcast
1:56 PM 32.0 °F 25.6 °F 28.0 °F 85% 30.16 in 10.0 mi WNW 6.9 mph - N/A   Overcast
2:56 PM 32.0 °F 23.0 °F 26.1 °F 79% 30.19 in 10.0 mi WNW 11.5 mph - N/A   Overcast
3:23 PM 32.0 °F 23.0 °F 26.6 °F 80% 30.15 in 10.0 mi WNW 11.5 mph - N/A   Overcast
3:43 PM 32.0 °F 23.6 °F 26.6 °F 80% 30.15 in 10.0 mi WNW 10.4 mph - N/A   Overcast
3:56 PM 30.9 °F 22.8 °F 26.1 °F 82% 30.22 in 10.0 mi NNW 9.2 mph 17.3 mph N/A   Overcast
4:56 PM 30.9 °F 22.8 °F 26.1 °F 82% 30.25 in 10.0 mi WNW 9.2 mph - N/A   Overcast
5:56 PM 30.9 °F 22.8 °F 26.1 °F 82% 30.28 in 10.0 mi WNW 9.2 mph - N/A   Overcast
6:51 PM 30.2 °F 19.8 °F 26.6 °F 86% 30.24 in 10.0 mi NW 13.8 mph 19.6 mph 0.00 in   Overcast
6:56 PM 30.9 °F 22.8 °F 26.1 °F 82% 30.30 in 10.0 mi WNW 9.2 mph 19.6 mph 0.00 in   Overcast
7:14 PM 30.2 °F 20.8 °F 24.8 °F 80% 30.24 in 10.0 mi WNW 11.5 mph 19.6 mph N/A   Overcast
7:56 PM 30.9 °F 19.4 °F 25.0 °F 79% 30.32 in 10.0 mi WNW 17.3 mph 25.3 mph N/A   Overcast
8:56 PM 30.9 °F 20.7 °F 24.1 °F 76% 30.35 in 10.0 mi NW 13.8 mph 19.6 mph N/A   Overcast
9:56 PM 30.0 °F 24.1 °F 24.1 °F 79% 30.36 in 10.0 mi WNW 5.8 mph - N/A   Overcast
10:56 PM 30.0 °F 23.2 °F 24.1 °F 79% 30.37 in 10.0 mi WNW 6.9 mph - N/A   Overcast
11:56 PM 30.0 °F 24.1 °F 25.0 °F 82% 30.38 in 10.0 mi NW 5.8 mph - N/A   Overcast